EW5058 Weather Reports


Display with metric or nautical units.
time (UTC)temp
F
wind
direction
speed
MPH
gust
MPH
rain 1hr
in
rain 24hr
in
rain mn
in
humidity
%
barometer
mb
20260507113819 54 338 1.0 2.0 0.00 0.08 0.04 86 1012.2
20260507112819 54 338 4.0 6.0 0.00 0.08 0.04 87 1012.0
20260507111839 54 338 2.0 3.0 0.00 0.08 0.04 86 1012.0
20260507110820 54 338 4.0 6.0 0.00 0.08 0.04 88 1011.8
20260507105819 54 338 3.0 5.0 0.00 0.08 0.04 87 1011.9
20260507104819 54 0 2.0 4.0 0.00 0.08 0.04 87 1011.3
20260507103819 54 315 2.0 5.0 0.00 0.08 0.04 87 1011.3
20260507102819 54 338 3.0 4.0 0.00 0.08 0.04 87 1011.4
20260507101819 54 315 3.0 6.0 0.00 0.08 0.04 87 1011.2
20260507100819 55 338 3.0 3.0 0.00 0.08 0.04 88 1011.2
20260507095818 55 338 6.0 8.0 0.00 0.08 0.04 87 1011.3
20260507094959 55 338 9.0 14.0 0.00 0.08 0.04 88 1011.1
20260507093819 55 338 9.0 11.0 0.00 0.08 0.04 90 1011.2
20260507092859 56 338 3.0 4.0 0.00 0.08 0.04 91 1011.3
20260507091819 56 338 4.0 5.0 0.00 0.08 0.04 91 1011.0
20260507090819 56 338 7.0 9.0 0.00 0.08 0.04 92 1010.8
20260507085839 56 338 5.0 8.0 0.00 0.08 0.04 91 1010.8
20260507084819 56 338 7.0 11.0 0.00 0.08 0.04 91 1010.8
20260507083819 57 338 10.0 12.0 0.00 0.08 0.04 92 1010.9
20260507082819 57 338 10.0 14.0 0.00 0.08 0.04 92 1010.7
20260507081819 57 338 6.0 12.0 0.00 0.08 0.04 93 1010.2
20260507080819 57 315 2.0 4.0 0.00 0.08 0.04 93 1010.1
20260507075819 57 338 3.0 5.0 0.00 0.08 0.04 93 1010.1
20260507074818 57 338 9.0 11.0 0.00 0.08 0.04 93 1010.5
20260507073859 58 338 7.0 9.0 0.00 0.08 0.04 93 1010.0
20260507072818 58 338 4.0 6.0 0.00 0.08 0.04 93 1009.5
20260507071819 58 338 10.0 14.0 0.00 0.08 0.04 93 1009.6
20260507070819 59 338 9.0 14.0 0.00 0.08 0.04 94 1009.6
20260507065818 59 315 7.0 9.0 0.02 0.08 0.04 94 1009.0
20260507064819 60 338 7.0 11.0 0.02 0.08 0.04 94 1008.7
20260507063819 60 338 8.0 11.0 0.04 0.08 0.04 94 1008.8
20260507062839 60 338 6.0 9.0 0.04 0.08 0.04 93 1008.9
20260507061819 60 338 8.0 11.0 0.04 0.08 0.04 93 1009.0
20260507060818 61 338 5.0 9.0 0.04 0.08 0.04 93 1008.8
20260507055818 62 338 7.0 10.0 0.02 0.06 0.02 92 1009.4
20260507054819 62 338 7.0 9.0 0.02 0.06 0.02 91 1009.1
20260507053839 63 338 8.0 11.0 0.00 0.04 0.00 90 1009.6
20260507052819 64 338 6.0 11.0 0.00 0.04 0.00 89 1009.3
20260507051818 64 315 7.0 10.0 0.00 0.04 0.00 89 1009.2
20260507050818 65 338 6.0 9.0 0.00 0.04 0.00 92 1009.6
20260507045840 65 315 2.0 3.0 0.00 0.04 0.00 92 1009.3
20260507044818 65 315 1.0 1.0 0.00 0.04 0.00 92 1009.5
20260507043820 65 0.0 0.0 0.00 0.04 0.00 93 1009.2
20260507042820 65 180 1.0 2.0 0.00 0.04 0.00 93 1009.1
20260507041818 65 0.0 0.0 0.00 0.04 0.00 93 1008.9
20260507040818 64 0.0 1.0 0.00 0.04 0.00 93 1009.0
20260507035819 64 0.0 0.0 0.00 0.04 0.04 94 1009.1
20260507034820 64 0.0 1.0 0.00 0.04 0.04 94 1009.1
20260507033819 64 0.0 1.0 0.00 0.04 0.04 94 1008.9
20260507032819 64 0.0 0.0 0.00 0.04 0.04 94 1008.8
20260507031819 64 0.0 0.0 0.00 0.04 0.04 94 1008.6
20260507030819 64 0.0 0.0 0.00 0.04 0.04 94 1008.5
20260507025819 64 0.0 1.0 0.00 0.04 0.04 94 1008.5
20260507024840 64 0.0 1.0 0.00 0.04 0.04 94 1008.7
20260507023859 64 0.0 1.0 0.00 0.04 0.04 94 1009.0
20260507022819 63 0.0 0.0 0.00 0.04 0.04 94 1009.0
20260507021819 63 0.0 0.0 0.00 0.04 0.04 93 1009.0
20260507020819 63 0.0 0.0 0.00 0.04 0.04 93 1009.0
20260507015819 63 0.0 0.0 0.00 0.04 0.04 92 1009.1
20260507014819 64 0.0 0.0 0.00 0.04 0.04 92 1009.3
20260507013819 64 0.0 0.0 0.00 0.04 0.04 91 1009.2
20260507012819 64 0.0 0.0 0.00 0.04 0.04 90 1009.6
20260507011839 65 0.0 0.0 0.00 0.04 0.04 90 1009.2
20260507010819 65 0.0 0.0 0.00 0.04 0.04 89 1009.1
20260507005819 66 0.0 0.0 0.00 0.04 0.04 88 1009.1
20260507004819 66 0.0 0.0 0.00 0.04 0.04 88 1009.0
20260507003819 66 0.0 1.0 0.00 0.04 0.04 87 1009.0
20260507002819 67 0.0 1.0 0.00 0.04 0.04 86 1008.8
20260507001819 67 0.0 0.0 0.00 0.04 0.04 86 1008.8
20260507000819 67 0.0 0.0 0.00 0.04 0.04 85 1008.8
20260506235839 68 0.0 0.0 0.00 0.04 0.04 85 1008.7
20260506234819 68 0.0 0.0 0.00 0.04 0.04 84 1008.5
20260506233819 68 0.0 1.0 0.00 0.04 0.04 84 1008.4
20260506232819 68 158 1.0 2.0 0.00 0.04 0.04 83 1008.4
20260506231819 69 158 1.0 2.0 0.00 0.04 0.04 83 1008.4
20260506230819 69 180 1.0 2.0 0.00 0.04 0.04 82 1008.3
20260506225819 69 180 3.0 4.0 0.00 0.04 0.04 82 1008.3
20260506224819 69 180 2.0 3.0 0.00 0.04 0.04 82 1008.5
20260506223819 69 203 2.0 3.0 0.00 0.04 0.04 81 1008.5
20260506222819 69 180 3.0 6.0 0.00 0.04 0.04 81 1008.5
20260506221819 69 203 2.0 5.0 0.00 0.04 0.04 81 1008.5
20260506220819 69 180 6.0 12.0 0.00 0.04 0.04 81 1008.5
20260506215818 69 180 1.0 2.0 0.00 0.04 0.04 81 1008.6
20260506214819 69 158 3.0 5.0 0.00 0.04 0.04 81 1008.7
20260506213819 69 180 3.0 10.0 0.00 0.04 0.04 80 1008.4
20260506212819 69 203 5.0 8.0 0.00 0.04 0.04 81 1008.3
20260506211839 69 180 5.0 12.0 0.00 0.04 0.04 81 1008.3
20260506210819 69 203 6.0 9.0 0.00 0.04 0.04 81 1008.2
20260506205819 69 158 3.0 6.0 0.00 0.04 0.04 81 1007.9
20260506204819 69 180 4.0 6.0 0.00 0.04 0.04 81 1008.0
20260506203839 69 158 6.0 14.0 0.00 0.04 0.04 82 1008.1
20260506202819 69 203 4.0 10.0 0.00 0.04 0.04 82 1008.1
20260506201818 69 158 7.0 14.0 0.00 0.04 0.04 82 1008.1
20260506200819 69 180 5.0 9.0 0.00 0.04 0.04 81 1008.3
20260506195819 69 180 8.0 17.0 0.00 0.04 0.04 80 1008.3
20260506194818 69 180 6.0 11.0 0.00 0.04 0.04 80 1008.5
20260506193819 69 158 6.0 8.0 0.00 0.04 0.04 80 1008.6
20260506192818 69 158 6.0 11.0 0.00 0.04 0.04 80 1008.7
20260506191839 69 180 3.0 5.0 0.00 0.04 0.04 81 1008.9
20260506190818 69 203 6.0 10.0 0.00 0.04 0.04 80 1008.9
20260506185819 69 203 4.0 8.0 0.00 0.04 0.04 81 1008.8
20260506184818 68 180 8.0 11.0 0.00 0.04 0.04 80 1009.0
20260506183818 68 180 7.0 15.0 0.00 0.04 0.04 81 1009.2
20260506182840 68 180 6.0 8.0 0.00 0.04 0.04 81 1009.5
20260506181818 68 180 4.0 7.0 0.00 0.04 0.04 83 1009.5
20260506180820 68 158 9.0 17.0 0.00 0.04 0.04 84 1009.5
20260506175818 68 180 4.0 10.0 0.00 0.04 0.04 84 1009.7
20260506174820 67 135 5.0 9.0 0.00 0.04 0.04 85 1009.9
20260506173819 66 180 5.0 9.0 0.00 0.04 0.04 86 1010.0
20260506172818 66 203 4.0 8.0 0.00 0.04 0.04 87 1009.9
20260506171820 65 180 7.0 13.0 0.01 0.04 0.04 88 1009.8
20260506170838 64 180 3.0 8.0 0.01 0.04 0.04 89 1009.9
20260506165838 64 180 7.0 19.0 0.04 0.04 0.04 89 1010.1
20260506164820 65 203 4.0 9.0 0.04 0.04 0.04 89 1010.1
20260506163818 65 180 5.0 12.0 0.04 0.04 0.04 92 1010.2
20260506162838 64 180 4.0 7.0 0.04 0.04 0.04 91 1010.2
20260506161820 63 180 2.0 6.0 0.03 0.03 0.03 91 1010.6
20260506160820 64 135 3.0 7.0 0.03 0.03 0.03 90 1010.6
20260506155818 64 180 4.0 9.0 0.00 0.00 0.00 89 1010.8
20260506154818 64 203 3.0 5.0 0.00 0.00 0.00 88 1011.0
20260506153818 64 180 2.0 4.0 0.00 0.00 0.00 87 1011.1
20260506152820 65 158 1.0 2.0 0.00 0.00 0.00 86 1011.1
20260506151818 65 180 2.0 4.0 0.00 0.00 0.00 84 1011.3
20260506150818 66 180 2.0 5.0 0.00 0.00 0.00 83 1011.2
20260506145819 66 180 1.0 2.0 0.00 0.00 0.00 80 1011.4
20260506144818 66 158 3.0 4.0 0.00 0.00 0.00 81 1011.3
20260506143820 67 180 2.0 3.0 0.00 0.00 0.00 79 1011.4
20260506142820 67 158 2.0 4.0 0.00 0.00 0.00 78 1011.2
20260506141820 67 180 2.0 3.0 0.00 0.00 0.00 76 1011.2
20260506140840 67 180 3.0 6.0 0.00 0.00 0.00 75 1011.4
20260506135820 67 180 7.0 10.0 0.00 0.00 0.00 74 1011.2
20260506134820 67 180 7.0 11.0 0.00 0.00 0.00 74 1011.1
20260506133819 67 180 4.0 7.0 0.00 0.00 0.00 74 1011.0
20260506132819 68 158 4.0 10.0 0.00 0.00 0.00 74 1011.1
20260506131820 68 158 4.0 9.0 0.00 0.00 0.00 74 1011.1
20260506130820 67 180 4.0 5.0 0.00 0.00 0.00 74 1011.1
20260506125820 67 203 3.0 4.0 0.00 0.00 0.00 73 1011.0
20260506124820 67 180 4.0 8.0 0.00 0.00 0.00 74 1011.0
20260506123840 67 203 4.0 9.0 0.00 0.00 0.00 73 1011.2
20260506122820 67 203 7.0 12.0 0.00 0.00 0.00 73 1011.2
20260506121820 67 180 5.0 8.0 0.00 0.00 0.00 74 1011.5
20260506120820 67 180 6.0 10.0 0.00 0.00 0.00 74 1011.5
20260506115840 66 180 4.0 6.0 0.00 0.00 0.00 75 1011.5
20260506114819 66 180 2.0 5.0 0.00 0.00 0.00 75 1011.4